Location: Llanfihangel-Ystrad
(52.1833°N, 4.1667°W)
Time: 07:10:53
(UTC+00:00)

Lacrosse 5 - Pass Details

Date: 17 February 2020
Orbit: 715 x 724 km, 57.0° (Epoch: 21 March)

Event Time Altitude Azimuth Distance (km) Brightness Sun altitude
Exits shadow 06:17:48 16° 277° (W) 1,835 3.3 -11.5°
Maximum altitude 06:20:49 28° 229° (SW) 1,348 2.9 -11.1°
Drops below altitude 10° 06:25:05 10° 172° (S) 2,204 4.6 -10.4°
Sets 06:27:44 0° 161° (SSE) 3,122 5.5 -10.0°
